THY1987 LTFM-EGLL

Flight info

Callsign THY1987
Flight time N/A
Altitude 34000
Route TUDBU1D/35L TUDBU Q26 ETUBA DCT NAVOD DCT INVED DCT BEGLA DCT DEXIT DCT INBED DCT BOMBI DCT ADKUV DCT BUB L608 LOGAN
Aircraft A321/M-SDE3FGHIRWY/LB1

Departure

Time N/A
Airport İstanbul Airport (LTFM)

Arrival

Time 2026-05-03 21:17
Airport London Heathrow Airport (EGLL)
Time Latitude Longitude Altitude Speed Heading
2026-05-03 20:20 50.09293 8.65325 34011 ft 456 kts 289°
2026-05-03 20:20 50.11374 8.55984 34008 ft 456 kts 289°
2026-05-03 20:21 50.13516 8.46688 34008 ft 456 kts 290°
2026-05-03 20:21 50.15705 8.37396 34007 ft 457 kts 290°
2026-05-03 20:22 50.17883 8.28077 34010 ft 457 kts 290°
2026-05-03 20:22 50.20050 8.18732 34007 ft 458 kts 290°
2026-05-03 20:23 50.22200 8.09383 34009 ft 458 kts 289°
2026-05-03 20:23 50.24330 8.00095 34007 ft 457 kts 289°
2026-05-03 20:24 50.26479 7.90728 34010 ft 458 kts 289°
2026-05-03 20:24 50.28613 7.81351 34010 ft 457 kts 289°
2026-05-03 20:25 50.30739 7.71979 34010 ft 458 kts 289°
2026-05-03 20:25 50.32517 7.64111 34009 ft 457 kts 289°
2026-05-03 20:26 50.34614 7.54790 34009 ft 456 kts 289°
2026-05-03 20:26 50.36716 7.45389 34010 ft 457 kts 289°
2026-05-03 20:27 50.38807 7.35990 34010 ft 456 kts 289°
2026-05-03 20:27 50.40895 7.26592 34010 ft 457 kts 289°
2026-05-03 20:28 50.42977 7.17171 34009 ft 458 kts 289°
2026-05-03 20:28 50.45058 7.07703 34007 ft 459 kts 289°
2026-05-03 20:29 50.47131 6.98221 34010 ft 459 kts 289°
2026-05-03 20:29 50.49180 6.88813 34009 ft 458 kts 289°
2026-05-03 20:30 50.51205 6.79324 34011 ft 458 kts 287°
2026-05-03 20:30 50.53027 6.69655 34009 ft 458 kts 285°
2026-05-03 20:31 50.54712 6.60054 34009 ft 458 kts 285°
2026-05-03 20:31 50.56425 6.50395 34010 ft 458 kts 285°
2026-05-03 20:32 50.58179 6.40753 34010 ft 459 kts 286°
2026-05-03 20:32 50.59930 6.31102 34007 ft 459 kts 285°
2026-05-03 20:33 50.61664 6.21433 34010 ft 459 kts 285°
2026-05-03 20:33 50.63392 6.11741 34010 ft 458 kts 285°
2026-05-03 20:34 50.65108 6.02065 34010 ft 458 kts 285°
2026-05-03 20:34 50.66801 5.92467 34010 ft 457 kts 285°
2026-05-03 20:35 50.68500 5.82786 34007 ft 457 kts 285°
2026-05-03 20:35 50.70182 5.73125 34007 ft 457 kts 285°
2026-05-03 20:36 50.71862 5.63443 34009 ft 456 kts 285°
2026-05-03 20:36 50.73535 5.53759 34010 ft 457 kts 285°
2026-05-03 20:37 50.75200 5.44067 34010 ft 456 kts 285°
2026-05-03 20:37 50.76848 5.34389 34008 ft 456 kts 285°
2026-05-03 20:38 50.78483 5.24764 34010 ft 456 kts 285°
2026-05-03 20:38 50.80119 5.15083 34008 ft 456 kts 285°
2026-05-03 20:39 50.81744 5.05373 34008 ft 456 kts 284°
2026-05-03 20:39 50.83359 4.95678 34010 ft 456 kts 284°
2026-05-03 20:40 50.84971 4.85971 34010 ft 456 kts 284°
2026-05-03 20:40 50.86575 4.76262 34010 ft 456 kts 284°
2026-05-03 20:41 50.88173 4.66540 34010 ft 456 kts 284°
2026-05-03 20:41 50.89797 4.56816 34006 ft 456 kts 288°
2026-05-03 20:42 50.92547 4.47799 34008 ft 456 kts 301°
2026-05-03 20:42 50.95847 4.39218 34010 ft 456 kts 301°
2026-05-03 20:43 50.99122 4.30685 34009 ft 456 kts 301°
2026-05-03 20:43 51.02415 4.22077 34009 ft 456 kts 301°
2026-05-03 20:44 51.05692 4.13444 34008 ft 456 kts 301°
2026-05-03 20:44 51.08966 4.04792 34010 ft 456 kts 301°
2026-05-03 20:45 51.12234 3.96139 34009 ft 456 kts 301°
2026-05-03 20:45 51.15494 3.87480 34011 ft 456 kts 301°
2026-05-03 20:46 51.18751 3.78810 34007 ft 456 kts 301°
2026-05-03 20:46 51.22000 3.70128 34013 ft 456 kts 301°
2026-05-03 20:47 51.25218 3.61487 34006 ft 456 kts 300°
2026-05-03 20:47 51.28443 3.52772 34008 ft 456 kts 300°
2026-05-03 20:48 51.31670 3.44046 34008 ft 456 kts 300°
2026-05-03 20:48 51.34820 3.35256 34006 ft 455 kts 295°
2026-05-03 20:49 51.37139 3.25813 34012 ft 455 kts 290°
2026-05-03 20:49 51.39367 3.16390 34007 ft 455 kts 290°
2026-05-03 20:50 51.41602 3.06899 34010 ft 455 kts 290°
2026-05-03 20:50 51.43835 2.97394 34010 ft 455 kts 290°
2026-05-03 20:51 51.46060 2.87881 34010 ft 455 kts 290°
2026-05-03 20:51 51.48281 2.78376 34010 ft 455 kts 290°
2026-05-03 20:52 51.50496 2.68839 34007 ft 455 kts 290°
2026-05-03 20:52 51.52694 2.59307 33542 ft 454 kts 290°
2026-05-03 20:52 51.53780 2.54565 33142 ft 447 kts 290°
2026-05-03 20:53 51.54828 2.49992 32819 ft 437 kts 290°
2026-05-03 20:53 51.55865 2.45459 32420 ft 429 kts 290°
2026-05-03 20:53 51.56884 2.40997 32013 ft 420 kts 290°
2026-05-03 20:53 51.57881 2.36628 31611 ft 412 kts 290°
2026-05-03 20:54 51.58860 2.32339 31212 ft 405 kts 290°
2026-05-03 20:54 51.60758 2.23978 30412 ft 392 kts 290°
2026-05-03 20:54 51.61683 2.19885 30024 ft 387 kts 290°
2026-05-03 20:55 51.61732 2.19665 29989 ft 387 kts 290°
2026-05-03 20:56 51.62736 2.15210 29542 ft 384 kts 290°
2026-05-03 20:56 51.63639 2.11225 29150 ft 381 kts 291°
2026-05-03 20:56 51.64612 2.07274 28749 ft 378 kts 292°
2026-05-03 20:57 51.65599 2.03346 28351 ft 377 kts 292°
2026-05-03 20:57 51.66576 1.99426 27952 ft 376 kts 289°
2026-05-03 20:57 51.67151 1.95347 27550 ft 373 kts 278°
2026-05-03 20:57 51.67489 1.91202 27150 ft 372 kts 277°
2026-05-03 20:58 51.67805 1.87070 26772 ft 370 kts 277°
2026-05-03 20:58 51.68116 1.82971 26312 ft 367 kts 277°
2026-05-03 20:58 51.68423 1.78903 25860 ft 364 kts 277°
2026-05-03 20:58 51.68726 1.74882 25410 ft 360 kts 277°
2026-05-03 20:59 51.69027 1.70879 24961 ft 361 kts 277°
2026-05-03 20:59 51.69339 1.66729 24523 ft 387 kts 277°
2026-05-03 20:59 51.69666 1.62368 24064 ft 394 kts 277°
2026-05-03 20:59 51.69990 1.58016 23610 ft 394 kts 277°
2026-05-03 21:00 51.70320 1.53579 23151 ft 392 kts 277°
2026-05-03 21:00 51.70425 1.52164 23006 ft 392 kts 277°
2026-05-03 21:00 51.70606 1.44908 22157 ft 387 kts 270°
2026-05-03 21:00 51.70607 1.40587 21631 ft 384 kts 270°
2026-05-03 21:01 51.70586 1.36286 21103 ft 381 kts 269°
2026-05-03 21:01 51.70559 1.32038 20578 ft 377 kts 269°
2026-05-03 21:01 51.70536 1.27816 20050 ft 374 kts 269°
2026-05-03 21:01 51.70516 1.23639 19534 ft 371 kts 269°
2026-05-03 21:02 51.70499 1.19500 19000 ft 368 kts 269°
2026-05-03 21:02 51.70482 1.15389 18473 ft 365 kts 269°
2026-05-03 21:02 51.70465 1.11317 17947 ft 362 kts 269°
2026-05-03 21:02 51.70446 1.07272 17897 ft 359 kts 269°
2026-05-03 21:03 51.70425 1.03261 16894 ft 356 kts 269°
2026-05-03 21:03 51.70405 0.99283 16367 ft 353 kts 269°
2026-05-03 21:03 51.70375 0.95356 16050 ft 344 kts 267°
2026-05-03 21:03 51.70159 0.91614 15995 ft 326 kts 263°
2026-05-03 21:04 51.69912 0.88047 16007 ft 317 kts 263°
2026-05-03 21:04 51.69668 0.84534 16009 ft 315 kts 263°
2026-05-03 21:04 51.69424 0.81031 15884 ft 313 kts 263°
2026-05-03 21:04 51.69181 0.77592 15520 ft 312 kts 263°
2026-05-03 21:05 51.68934 0.74126 15130 ft 311 kts 263°
2026-05-03 21:05 51.68689 0.70673 14767 ft 309 kts 263°
2026-05-03 21:05 51.68445 0.67237 14391 ft 307 kts 263°
2026-05-03 21:05 51.68202 0.63826 14015 ft 305 kts 263°
2026-05-03 21:06 51.67956 0.60442 13639 ft 304 kts 263°
2026-05-03 21:06 51.67709 0.57070 13264 ft 302 kts 263°
2026-05-03 21:06 51.67465 0.53720 12892 ft 300 kts 263°
2026-05-03 21:06 51.67225 0.50391 12511 ft 298 kts 263°
2026-05-03 21:07 51.67067 0.48197 12263 ft 297 kts 263°
2026-05-03 21:07 51.66832 0.44891 11882 ft 296 kts 263°
2026-05-03 21:07 51.66595 0.41611 11510 ft 294 kts 263°
2026-05-03 21:07 51.66356 0.38350 11141 ft 292 kts 263°
2026-05-03 21:08 51.66112 0.35097 10757 ft 291 kts 263°
2026-05-03 21:08 51.65870 0.31866 10381 ft 289 kts 263°
2026-05-03 21:08 51.65630 0.28664 10006 ft 287 kts 263°
2026-05-03 21:08 51.65388 0.25489 9620 ft 284 kts 263°
2026-05-03 21:09 51.65149 0.22355 9244 ft 281 kts 263°
2026-05-03 21:09 51.64918 0.19285 8881 ft 278 kts 263°
2026-05-03 21:09 51.64591 0.16209 8547 ft 273 kts 252°
2026-05-03 21:09 51.63760 0.13561 8231 ft 268 kts 232°
2026-05-03 21:10 51.62576 0.11288 7911 ft 264 kts 230°
2026-05-03 21:10 51.61393 0.09046 7582 ft 261 kts 230°
2026-05-03 21:10 51.60225 0.06827 7251 ft 258 kts 230°
2026-05-03 21:10 51.59225 0.04931 6971 ft 255 kts 230°
2026-05-03 21:11 51.58081 0.02756 6598 ft 255 kts 230°
2026-05-03 21:11 51.56944 0.00592 6142 ft 253 kts 230°
2026-05-03 21:11 51.55813 -0.01562 5681 ft 251 kts 230°
2026-05-03 21:11 51.54687 -0.03692 5238 ft 249 kts 229°
2026-05-03 21:12 51.53554 -0.05775 4788 ft 247 kts 230°
2026-05-03 21:12 51.52445 -0.07862 4336 ft 245 kts 230°
2026-05-03 21:12 51.51349 -0.09948 3878 ft 241 kts 230°
2026-05-03 21:12 51.50298 -0.11952 3457 ft 228 kts 230°
2026-05-03 21:13 51.49310 -0.13836 3004 ft 218 kts 230°
2026-05-03 21:13 51.48393 -0.15715 2547 ft 210 kts 240°
2026-05-03 21:13 51.47890 -0.17844 2141 ft 199 kts 260°
2026-05-03 21:13 51.47831 -0.19934 2092 ft 177 kts 270°
2026-05-03 21:14 51.47832 -0.21843 2087 ft 169 kts 270°
2026-05-03 21:14 51.47818 -0.23675 1903 ft 159 kts 269°
2026-05-03 21:14 51.47806 -0.25440 1683 ft 158 kts 270°
2026-05-03 21:14 51.47810 -0.27210 1632 ft 159 kts 271°
2026-05-03 21:15 51.47838 -0.28992 1599 ft 160 kts 272°
2026-05-03 21:15 51.47877 -0.30771 1493 ft 159 kts 272°
2026-05-03 21:15 51.47900 -0.32517 1356 ft 153 kts 269°
2026-05-03 21:15 51.47883 -0.34219 1251 ft 151 kts 269°
2026-05-03 21:16 51.47859 -0.35861 1072 ft 146 kts 268°
2026-05-03 21:16 51.47829 -0.37446 827 ft 141 kts 269°
2026-05-03 21:16 51.47809 -0.39041 616 ft 141 kts 269°
2026-05-03 21:16 51.47802 -0.40568 432 ft 138 kts 270°
2026-05-03 21:17 51.47782 -0.42105 241 ft 137 kts 269°
2026-05-03 21:17 51.47775 -0.43123 124 ft 133 kts 270°
2026-05-03 21:17 51.47766 -0.44826 89 ft 91 kts 269°
2026-05-03 21:17 51.47762 -0.45392 86 ft 49 kts 269°
2026-05-03 21:18 51.47734 -0.45827 89 ft 31 kts 241°
2026-05-03 21:18 51.47612 -0.46028 89 ft 10 kts 221°
2026-05-03 21:18 51.47556 -0.46106 91 ft 11 kts 221°
2026-05-03 21:18 51.47496 -0.46191 89 ft 12 kts 221°
2026-05-03 21:19 51.47427 -0.46288 87 ft 14 kts 221°
2026-05-03 21:19 51.47379 -0.46356 89 ft 14 kts 221°